Tracking 28790 objects as of 19-Apr-2024
HD Live streaming from Space Station
objects crossing your sky now

CZ-4 DEB

Track CZ-4 DEB now!
10-day predictions


NORAD ID: 35383
Int'l Code: 2003-049K
Perigee: 672.8 km
Apogee: 745.4 km
Inclination: 98.6 °
Period: 98.8 minutes
Semi major axis: 7080 km
RCS: 0.0214 m2 (small)
Launch date: October 21, 2003
Source: People's Republic of China (PRC)
Launch site: Taiyaun Space Center, China (TSC)

Note: This is SATELLITE DEBRIS
Your satellite tracking list
Your tracking list is empty




NASA's NSSDC Master Catalog

Two Line Element Set (TLE):
1 35383U 03049K   24107.17409575  .00001472  00000-0  33062-3 0  9991
2 35383  98.5853  73.8008 0051250  58.4956 302.1234 14.57293116596888
Source of the keplerian elements: AFSPC